Location: Downe
(51.3167°N, 0.0500°E)
Time: 22:46:23
(UTC+00:00)

STARLINK-52 - Pass Details

Date: 17 November 2019
Orbit: 443 x 445 km, 53.0° (Epoch: 05 December)

Event Time Altitude Azimuth Distance (km) Brightness Sun altitude
Exits shadow 05:46:40 29° 283° (WNW) 854 4.0 -14.4°
Maximum altitude 05:48:18 65° 357° (N) 495 3.3 -14.1°
Drops below altitude 10° 05:51:49 10° 80° (E) 1,569 7.1 -13.6°
Sets 05:53:57 0° 84° (E) 2,441 8.4 -13.2°
